[[{"header":{"parameterUnit":"m.s-1","parameterCategory":1,"la1":30.2991,"la2":30.254,"lo1":-89.0895,"lo2":-89.0444,"dy":0.0017,"dx":0.0017,"nx":28,"ny":28,"refTime":"2025-09-15T03:00:00:Z","depth":0,"parameterNumber":2,"parameterNumberName":"U-component_of_WINDS"},"data":[0,0,0,0,0,0,0,0,0,0,0,0,0,0,0,0,0,0,0,0,0,0,0,0,0,0,0,0,0,0,0,0,0,0,0,0,0,0,0,0,0,0,0,0,0,0,0,0,0,0,0,0,0,0,0,0,0,0,-3.7863,-3.7864,0,-3.7944,-3.7945,-3.7946,-3.7926,-3.7925,-3.7923,-3.7922,-3.8004,-3.8007,-3.8011,0,0,0,0,0,0,0,0,0,0,0,0,0,-3.7691,-3.7694,-3.7863,-3.7864,-3.7865,-3.7944,-3.7945,-3.7947,-3.7927,-3.7925,-3.7923,-3.7921,-3.8003,-3.8007,-3.8011,0,0,0,0,0,0,0,0,0,0,0,0,0,-3.7768,-3.7695,-3.7863,-3.7864,-3.7865,-3.7944,-3.7945,-3.7947,-3.7927,-3.7925,-3.7922,-3.792,-3.8001,-3.8007,-3.8012,-3.8093,0,0,-3.8029,-3.8031,0,0,0,0,0,0,0,0,-3.7764,-3.7774,-3.7863,-3.7865,-3.7866,-3.7923,-3.7915,-3.7996,-3.7928,-3.7904,-3.7922,-3.7919,-3.7979,-3.7986,-3.8006,-3.8097,-3.8101,-3.8029,-3.8033,-3.8035,-3.8036,0,0,0,0,0,0,0,-3.7758,-3.7771,-3.7895,-3.7865,-3.7866,-3.7862,-3.787,-3.793,-3.7953,-3.7905,-3.7904,-3.7914,-3.7979,-3.8001,-3.8008,-3.8102,-3.8029,-3.8034,-3.8037,-3.8039,-3.8265,-3.8267,0,0,0,0,0,0,-3.7752,-3.7766,-3.7892,-3.7897,-3.7808,-3.7867,-3.7876,-3.7907,-3.7953,-3.7957,-3.7916,-3.7913,-3.7993,-3.8002,-3.8011,-3.8109,-3.8035,-3.804,-3.8043,-3.8262,-3.8265,-3.8268,0,0,0,0,0,0,-3.7748,-3.7763,-3.7889,-3.7832,-3.7847,-3.7872,-3.7907,-3.791,-3.7932,-3.7961,-3.7965,-3.7934,-3.7991,-3.8003,-3.8073,-3.8111,-3.8042,-3.8047,-3.8259,-3.8263,-3.8267,-3.8305,0,0,0,0,0,0,-3.7744,-3.7762,-3.7793,-3.7833,-3.7851,-3.795,-3.7909,-3.7913,-3.7941,-3.7938,-3.7979,-3.7983,-3.799,-3.8065,-3.8079,-3.8117,-3.8052,-3.8256,-3.8261,-3.8266,-3.83,-3.831,-3.8318,0,0,0,0,0,-3.7737,-3.78,-3.7794,-3.781,-3.7889,-3.7952,-3.7962,-3.7969,-3.7945,-3.7976,-3.7995,-3.7982,-3.8106,-3.8073,-3.8088,-3.8129,-3.8253,-3.8259,-3.8265,-3.8296,-3.8308,-3.8318,0,0,0,0,0,0,-3.7762,-3.7805,-3.7799,-3.7876,-3.7911,-3.7948,-3.7987,-3.7981,-3.8023,-3.8018,-3.8025,-3.8034,-3.8106,-3.8125,-3.8087,-3.8211,-3.8176,-3.8185,-3.8194,-3.8206,-3.8214,-3.8206,-3.8056,0,0,0,0,0,-3.7777,-3.7825,-3.7859,-3.7924,-3.7942,-3.7962,-3.799,-3.7993,-3.8028,-3.8042,-3.8067,-3.8102,-3.8148,-3.8179,-3.8224,-3.8305,-3.8313,-3.8341,-3.835,-3.8357,-3.8363,-3.8408,-3.842,-3.8288,-3.8288,-3.8288,0,0,-3.7807,-3.7837,-3.7866,-3.793,-3.7957,-3.8006,-3.7974,-3.8027,-3.8063,-3.805,-3.8117,-3.8137,-3.8177,-3.8253,-3.8288,-3.8271,-3.8403,-3.8364,-3.837,-3.8373,-3.8415,-3.8428,-3.8439,-3.8292,-3.8292,-3.8291,0,0,-3.7887,-3.7915,-3.7971,-3.8,-3.8042,-3.8055,-3.8069,-3.8109,-3.8121,-3.819,-3.8181,-3.8225,-3.8306,-3.8335,-3.836,-3.8455,-3.8444,-3.847,-3.8513,-3.8557,-3.8567,-3.8576,-3.8608,-3.862,-3.8477,-3.8477,-3.8477,0,-3.7918,-3.7991,-3.8001,-3.8055,-3.8083,-3.8077,-3.8134,-3.8162,-3.8216,-3.8236,-3.8217,-3.8319,-3.8346,-3.8428,-3.8452,-3.8473,-3.8489,-3.8462,-3.8565,-3.8574,-3.8583,-3.8614,-3.8626,-3.848,-3.8479,-3.8479,-3.8479,0,-3.8028,-3.8079,-3.8121,-3.8174,-3.8208,-3.8263,-3.8281,-3.8315,-3.8317,-3.8332,-3.8403,-3.8435,-3.8486,-3.8507,-3.8509,-3.8591,-3.8579,-3.8563,-3.8528,-3.8598,-3.8627,-3.8639,-3.8483,-3.8483,-3.8482,-3.8481,0,0,-3.812,-3.8181,-3.8196,-3.822,-3.8268,-3.8308,-3.8365,-3.8416,-3.8443,-3.8483,-3.8529,-3.86,-3.8586,-3.8615,-3.8621,-3.8659,-3.8731,-3.8638,-3.8639,-3.8652,-3.8822,-3.8831,-3.8845,-3.8727,-3.8729,-3.8731,-3.8818,0,-3.8202,-3.83,-3.8313,-3.84,-3.8448,-3.8444,-3.8493,-3.8528,-3.8546,-3.8589,-3.8609,-3.8658,-3.8637,-3.8654,-3.8693,-3.8714,-3.8765,-3.8708,-3.8769,-3.8771,-3.8755,-3.886,-3.887,-3.895,-3.883,-3.8832,-3.8833,0,-3.8309,-3.8352,-3.8444,-3.8487,-3.8507,-3.8551,-3.86,-3.8642,-3.8682,-3.8693,-3.8727,-3.8728,-3.8787,-3.8753,-3.8834,-3.8796,-3.8822,-3.8837,-3.884,-3.8843,-3.8803,-3.8863,-3.8976,-3.8987,-3.8851,-3.885,-3.8849,0,-3.8364,-3.8446,-3.8512,-3.8533,-3.8585,-3.8616,-3.8639,-3.8678,-3.8708,-3.8752,-3.8772,-3.8821,-3.8848,-3.8887,-3.8902,-3.8876,-3.8982,-3.8949,-3.8991,-3.8991,-3.901,-3.9008,-3.9126,-3.9033,-3.9032,-3.9032,-3.9032,0,-3.8452,-3.8508,-3.8537,-3.8577,-3.8641,-3.8656,-3.8718,-3.874,-3.8775,-3.882,-3.8821,-3.8863,-3.8882,-3.8928,-3.8941,-3.9005,-3.9018,-3.9027,-3.9029,-3.9025,-3.9024,-3.9039,-3.9033,-3.9035,-3.9035,-3.9034,-3.9034,0,-3.8522,-3.8545,-3.8616,-3.866,-3.8673,-3.8718,-3.8756,-3.8795,-3.8814,-3.8871,-3.8885,-3.8915,-3.8969,-3.8989,-3.9055,-3.9063,-3.9137,-3.9137,-3.9123,-3.9123,-3.9163,-3.9158,-3.9292,-3.931,-3.9208,-3.9209,-3.921,0,-3.8575,-3.8618,-3.8668,-3.8698,-3.8723,-3.8772,-3.8803,-3.8821,-3.8854,-3.8905,-3.8939,-3.8993,-3.9036,-3.9122,-3.915,-3.92,-3.9199,-3.9243,-3.9206,-3.9201,-3.9196,-3.9192,-3.9196,-3.9248,-3.9249,-3.925,-3.925,0,-3.8665,-3.8675,-3.872,-3.8771,-3.8809,-3.885,-3.8889,-3.8914,-3.8938,-3.8975,-3.9031,-3.9065,-3.9133,-3.9186,-3.9238,-3.9263,-3.926,-3.9263,-3.9275,-3.9269,-3.9258,-3.9262,-3.9138,-3.9258,-3.9257,-3.9257,-3.9256,-3.9256,-3.8727,-3.8765,-3.8807,-3.8858,-3.889,-3.8928,-3.8967,-3.8992,-3.9038,-3.9095,-3.9104,-3.9163,-3.9204,-3.9275,-3.9302,-3.9349,-3.9337,-3.9354,-3.9358,-3.9362,-3.9363,-3.9254,-3.9359,-3.9359,-3.9358,-3.9358,-3.9358,0,-3.8815,-3.8843,-3.889,-3.8945,-3.8986,-3.8984,-3.9028,-3.9062,-3.9114,-3.9153,-3.9197,-3.9261,-3.9314,-3.9347,-3.94,-3.9431,-3.9432,-3.9444,-3.944,-3.9446,-3.9372,-3.9355,-3.9443,-3.9443,-3.9443,-3.9443,-3.9443,-3.9443,-3.8866,-3.893,-3.8945,-3.9027,-3.9054,-3.9112,-3.9137,-3.9172,-3.9204,-3.9276,-3.9319,-3.9342,-3.9379,-3.9435,-3.9484,-3.9492,-3.9511,-3.9524,-3.9531,-3.946,-3.9451,-3.9443,-3.9427,-3.9528,-3.9529,-3.9601,-3.9602,-3.9602]},{"header":{"parameterUnit":"m.s-1","parameterCategory":1,"la1":30.2991,"la2":30.254,"lo1":-89.0895,"lo2":-89.0444,"dy":0.0017,"dx":0.0017,"nx":28,"ny":28,"refTime":"2025-09-15T03:00:00:Z","depth":0,"parameterNumber":3,"parameterNumberName":"V-component_of_WINDS"},"data":[0,0,0,0,0,0,0,0,0,0,0,0,0,0,0,0,0,0,0,0,0,0,0,0,0,0,0,0,0,0,0,0,0,0,0,0,0,0,0,0,0,0,0,0,0,0,0,0,0,0,0,0,0,0,0,0,0,0,3.9332,3.9333,0,3.9352,3.9352,3.9352,3.9395,3.9396,3.9396,3.9397,3.9412,3.9412,3.9412,0,0,0,0,0,0,0,0,0,0,0,0,0,3.9329,3.9329,3.9332,3.9333,3.9333,3.9351,3.9352,3.9352,3.9394,3.9396,3.9397,3.9398,3.9413,3.9412,3.9411,0,0,0,0,0,0,0,0,0,0,0,0,0,3.9337,3.9329,3.9332,3.9356,3.9359,3.9351,3.9352,3.9352,3.9394,3.9396,3.9397,3.9398,3.9413,3.9412,3.9411,3.9381,0,0,3.9409,3.9409,0,0,0,0,0,0,0,0,3.9337,3.9338,3.9353,3.9355,3.9357,3.9372,3.9356,3.9362,3.9394,3.9381,3.9397,3.9399,3.9398,3.9398,3.9399,3.9382,3.9382,3.9409,3.9409,3.9409,3.9409,0,0,0,0,0,0,0,3.9336,3.9337,3.934,3.9353,3.9356,3.9365,3.9368,3.9357,3.9381,3.9382,3.9385,3.9387,3.9399,3.9399,3.9399,3.9382,3.9409,3.9409,3.9408,3.9408,3.9341,3.934,0,0,0,0,0,0,3.9333,3.9336,3.9339,3.934,3.935,3.9364,3.9367,3.9366,3.9382,3.9385,3.9386,3.9389,3.94,3.94,3.94,3.9365,3.9409,3.9408,3.9408,3.9342,3.9341,3.9339,0,0,0,0,0,0,3.9333,3.9333,3.9338,3.9339,3.9341,3.9363,3.9361,3.9366,3.9366,3.9385,3.9389,3.9382,3.9401,3.9401,3.9386,3.9366,3.9408,3.9407,3.9344,3.9342,3.934,3.9295,0,0,0,0,0,0,3.9332,3.9332,3.9322,3.9339,3.9341,3.9324,3.936,3.9365,3.9365,3.9369,3.9382,3.9385,3.9402,3.9386,3.9385,3.9366,3.9407,3.9346,3.9343,3.9341,3.9298,3.9291,3.9285,0,0,0,0,0,3.9332,3.9307,3.9321,3.9321,3.9328,3.9323,3.9324,3.9345,3.9364,3.9352,3.9365,3.9385,3.9369,3.9384,3.9383,3.9364,3.9347,3.9344,3.9341,3.9301,3.9292,3.9286,0,0,0,0,0,0,3.9285,3.931,3.9325,3.9305,3.9312,3.933,3.9317,3.9336,3.9336,3.934,3.9365,3.9367,3.9348,3.9355,3.9371,3.9335,3.9361,3.9358,3.9331,3.9324,3.9317,3.9315,3.9406,0,0,0,0,0,3.9273,3.9268,3.929,3.927,3.9273,3.9294,3.9293,3.9309,3.9316,3.9319,3.933,3.9335,3.9331,3.9328,3.9326,3.93,3.9302,3.9286,3.928,3.9274,3.927,3.9257,3.9249,3.9329,3.9329,3.9329,0,0,3.9246,3.9259,3.9255,3.9261,3.9268,3.9261,3.9296,3.9288,3.9283,3.9317,3.9303,3.9312,3.9319,3.9298,3.929,3.9303,3.9249,3.927,3.9266,3.9265,3.9253,3.9245,3.9238,3.9327,3.9327,3.9327,0,0,3.9195,3.9205,3.9189,3.9197,3.9208,3.9222,3.9219,3.9235,3.9242,3.9229,3.9255,3.9249,3.9242,3.9247,3.9248,3.92,3.9218,3.9198,3.9165,3.9151,3.9145,3.914,3.9121,3.9115,3.9195,3.9195,3.9195,0,3.916,3.9153,3.9179,3.9169,3.9171,3.9204,3.9188,3.9193,3.9202,3.9201,3.9217,3.921,3.9217,3.9198,3.9186,3.9187,3.9182,3.9196,3.9144,3.9139,3.9134,3.9117,3.911,3.9192,3.9192,3.9193,3.9193,0,3.9109,3.9104,3.909,3.91,3.91,3.9087,3.911,3.9107,3.9123,3.9136,3.9123,3.9133,3.9133,3.913,3.9145,3.9113,3.9121,3.914,3.9167,3.9124,3.9108,3.9102,3.9188,3.9189,3.919,3.9191,0,0,3.9027,3.9052,3.9047,3.9052,3.9067,3.9063,3.9051,3.9054,3.905,3.9056,3.9046,3.904,3.9059,3.906,3.9076,3.9064,3.9025,3.9085,3.9086,3.9072,3.8988,3.8973,3.8965,3.9038,3.9037,3.9036,3.8987,0,3.8978,3.8961,3.8984,3.8961,3.8956,3.8988,3.8979,3.8986,3.8998,3.8995,3.9008,3.9003,3.9028,3.9029,3.9019,3.9032,3.9008,3.9036,3.9027,3.9027,3.9023,3.8957,3.894,3.8893,3.8981,3.898,3.898,0,3.8918,3.8922,3.8899,3.8917,3.8916,3.8906,3.891,3.8907,3.8917,3.8926,3.8929,3.8949,3.8938,3.8965,3.895,3.8968,3.8967,3.8972,3.8971,3.8969,3.8999,3.8952,3.8879,3.8871,3.8971,3.8971,3.8972,0,3.8858,3.8858,3.8845,3.8848,3.8869,3.8861,3.8869,3.888,3.888,3.8884,3.8884,3.8885,3.8885,3.8885,3.8905,3.8923,3.8887,3.8916,3.8893,3.8892,3.8882,3.8882,3.8806,3.8884,3.8884,3.8884,3.8884,0,3.88,3.8784,3.8819,3.881,3.8793,3.8821,3.8803,3.8814,3.8824,3.8817,3.8845,3.8838,3.8865,3.8861,3.8876,3.8861,3.8861,3.8867,3.8871,3.8864,3.8863,3.8861,3.8864,3.8882,3.8883,3.8883,3.8883,0,3.873,3.8752,3.874,3.8761,3.8766,3.8752,3.877,3.8762,3.8777,3.8768,3.8768,3.879,3.8787,3.8807,3.8806,3.8817,3.8793,3.8803,3.879,3.8792,3.8768,3.8769,3.8687,3.8677,3.8762,3.8761,3.8761,0,3.869,3.8679,3.87,3.8698,3.8705,3.8702,3.8703,3.8729,3.8729,3.8739,3.873,3.8729,3.8729,3.8722,3.8737,3.8737,3.8746,3.8718,3.8746,3.8739,3.8744,3.8744,3.8742,3.8711,3.871,3.8709,3.8708,0,3.8617,3.863,3.863,3.8635,3.8635,3.8639,3.8646,3.8642,3.8671,3.8669,3.8666,3.8667,3.8667,3.8665,3.8669,3.8675,3.8696,3.87,3.8694,3.8685,3.8678,3.868,3.8772,3.8701,3.8701,3.8702,3.8702,3.8703,3.8561,3.8552,3.8566,3.8566,3.8574,3.8579,3.8573,3.8588,3.8587,3.859,3.8606,3.86,3.861,3.8617,3.8622,3.8617,3.8631,3.8623,3.862,3.8618,3.8613,3.868,3.8618,3.8618,3.8618,3.8619,3.8619,0,3.8488,3.8499,3.8499,3.8507,3.8507,3.8529,3.8537,3.8535,3.853,3.8538,3.8539,3.8536,3.8535,3.8551,3.8551,3.8544,3.8553,3.8543,3.8543,3.8544,3.8601,3.8605,3.8536,3.8536,3.8536,3.8536,3.8536,3.8536,3.845,3.8437,3.8451,3.8442,3.8453,3.8449,3.8452,3.8457,3.8464,3.8459,3.8459,3.847,3.8482,3.8483,3.8483,3.8488,3.8486,3.8472,3.8479,3.8532,3.854,3.8548,3.8552,3.8471,3.8471,3.8422,3.8422,3.8421]}]]